EW7833 Weather Reports


time (UTC)temp
C
wind
direction
speed
KPH
gust
KPH
rain 1hr
cm
rain 24hr
cm
rain mn
cm
humidity
%
barometer
mb
20260510224547 7 265 12.9 19.3 0.00 0.00 0.00 70 1019.8
20260510223047 8 271 16.1 24.1 0.00 0.00 0.00 65 1019.8
20260510221551 10 268 1.6 14.5 0.00 0.00 0.00 51 1019.6
20260510220041 11 271 0.0 4.8 0.00 0.00 0.00 55 1019.4
20260510214538 10 240 0.0 22.5 0.00 0.00 0.00 59 1019.2
20260510213038 8 264 11.3 22.5 0.00 0.00 0.00 60 1019.1
20260510211543 8 273 6.4 24.1 0.00 0.00 0.00 64 1019.1
20260510210034 7 273 14.5 24.1 0.00 0.00 0.00 71 1019.0
20260510204537 7 259 14.5 22.5 0.00 0.00 0.00 67 1019.0
20260510203034 7 261 16.1 24.1 0.00 0.00 0.00 70 1019.0
20260510201532 8 262 12.9 22.5 0.00 0.00 0.00 64 1019.0
20260510200034 8 266 14.5 20.9 0.00 0.00 0.00 65 1018.9
20260510194538 8 270 4.8 17.7 0.00 0.00 0.00 59 1018.9
20260510193030 8 335 0.0 8.0 0.00 0.00 0.00 60 1018.9
20260510191528 7 238 6.4 24.1 0.00 0.00 0.00 68 1018.8
20260510190040 7 264 16.1 30.6 0.00 0.00 0.00 73 1018.6
20260510184520 7 268 14.5 22.5 0.00 0.00 0.00 69 1018.3
20260510183017 7 273 16.1 24.1 0.00 0.00 0.00 66 1018.0
20260510181516 6 284 9.7 22.5 0.00 0.00 0.00 72 1018.0
20260510180015 6 259 14.5 20.9 0.00 0.00 0.00 73 1018.0
20260510174514 6 264 9.7 24.1 0.00 0.00 0.00 74 1017.8
20260510173012 6 281 17.7 25.7 0.00 0.00 0.00 78 1017.6
20260510171517 7 257 14.5 24.1 0.00 0.00 0.00 75 1017.6
20260510170010 6 256 16.1 24.1 0.00 0.00 0.00 76 1017.5
20260510164516 6 272 14.5 27.4 0.00 0.00 0.00 77 1017.5
20260510163007 6 270 19.3 25.7 0.00 0.00 0.00 75 1017.3
20260510161505 6 270 17.7 25.7 0.00 0.00 0.00 72 1017.0
20260510160004 7 247 19.3 27.4 0.00 0.00 0.00 72 1016.9
20260510154501 7 276 17.7 29.0 0.00 0.00 0.00 71 1016.8
20260510153104 7 268 20.9 25.7 0.00 0.00 0.00 68 1016.6
20260510151628 6 262 12.9 22.5 0.00 0.00 0.00 73 1016.3
20260510150100 6 258 16.1 22.5 0.00 0.00 0.00 71 1016.2
20260510144603 6 259 16.1 22.5 0.00 0.00 0.00 66 1016.1
20260510143104 6 262 16.1 22.5 0.00 0.00 0.00 65 1015.9
20260510141555 6 257 16.1 20.9 0.00 0.00 0.00 70 1015.8
20260510140048 6 238 14.5 19.3 0.00 0.00 0.00 77 1015.8
20260510134550 6 266 12.9 22.5 0.00 0.00 0.00 76 1015.7
20260510133045 6 268 11.3 19.3 0.00 0.00 0.00 78 1015.8
20260510131544 5 281 9.7 16.1 0.00 0.00 0.00 78 1015.6
20260510130040 5 266 11.3 16.1 0.00 0.00 0.00 82 1015.6
20260510124542 5 252 11.3 16.1 0.00 0.00 0.00 82 1015.4
20260510123037 5 261 11.3 17.7 0.00 0.00 0.00 84 1015.3
20260510121536 4 227 9.7 17.7 0.00 0.00 0.00 84 1015.1
20260510120035 4 273 8.0 12.9 0.00 0.00 0.00 85 1015.0
20260510114536 4 269 6.4 12.9 0.00 0.00 0.00 86 1014.8
20260510113030 3 264 6.4 11.3 0.00 0.00 0.00 86 1014.7
20260510111530 3 266 6.4 9.7 0.00 0.00 0.00 87 1014.5
20260510110029 3 264 6.4 9.7 0.00 0.00 0.00 88 1014.3
20260510104523 3 274 6.4 9.7 0.00 0.00 0.00 88 1014.0
20260510103026 3 271 6.4 9.7 0.00 0.00 0.00 87 1013.7
20260510101518 3 274 8.0 9.7 0.00 0.00 0.00 87 1013.3
20260510100029 3 253 8.0 11.3 0.00 0.00 0.00 87 1013.3
20260510094517 3 278 8.0 12.9 0.00 0.00 0.00 87 1013.1
20260510093013 4 269 8.0 12.9 0.00 0.00 0.00 86 1013.0
20260510091511 4 266 6.4 14.5 0.00 0.00 0.00 86 1012.7
20260510090011 4 265 11.3 14.5 0.00 0.00 0.00 87 1012.5
20260510084508 4 267 9.7 16.1 0.00 0.00 0.00 87 1012.5
20260510083018 4 262 11.3 16.1 0.00 0.00 0.00 85 1012.4
20260510081506 4 244 14.5 19.3 0.00 0.00 0.00 85 1012.2
20260510080003 5 278 14.5 19.3 0.00 0.00 0.00 80 1011.9
20260510074558 5 265 8.0 12.9 0.00 0.00 0.00 79 1011.7
20260510073104 5 264 8.0 11.3 0.00 0.00 0.00 77 1011.5
20260510071555 5 255 8.0 11.3 0.00 0.00 0.00 78 1011.3
20260510070055 5 273 6.4 14.5 0.00 0.00 0.00 75 1011.1
20260510064553 5 260 6.4 16.1 0.00 0.00 0.00 79 1011.0
20260510063050 5 275 4.8 9.7 0.00 0.00 0.00 72 1011.0
20260510061545 3 242 0.0 1.6 0.00 0.00 0.00 74 1010.9
20260510060046 3 129 0.0 1.6 0.00 0.00 0.00 76 1010.8
20260510054542 3 53 0.0 0.0 0.00 0.00 0.00 74 1010.7
20260510053039 4 53 0.0 1.6 0.00 0.00 0.00 69 1010.7
20260510051540 5 49 0.0 1.6 0.00 0.00 0.00 69 1010.5
20260510050040 5 21 0.0 1.6 0.00 0.00 0.00 68 1010.4
20260510044534 5 354 0.0 3.2 0.00 0.00 0.00 66 1010.3
20260510043029 5 6 0.0 4.8 0.00 0.00 0.00 65 1010.1
20260510041526 5 30 0.0 11.3 0.00 0.00 0.00 66 1009.8
20260510040023 5 4 0.0 6.4 0.00 0.00 0.00 65 1009.3
20260510034521 5 330 1.6 4.8 0.00 0.00 0.00 64 1009.4
20260510033019 6 162 0.0 1.6 0.00 0.00 0.00 64 1009.3
20260510031519 6 21 0.0 6.4 0.00 0.00 0.00 61 1009.4
20260510030018 6 15 0.0 3.2 0.00 0.00 0.00 62 1009.3
20260510024518 6 36 0.0 6.4 0.00 0.00 0.00 64 1009.1
20260510023016 6 360 0.0 3.2 0.00 0.00 0.00 66 1009.2
20260510021517 6 326 0.0 8.0 0.00 0.00 0.00 70 1009.1
20260510020012 6 246 0.0 11.3 0.00 0.00 0.00 67 1008.8
20260510014509 6 205 0.0 6.4 0.00 0.00 0.00 67 1008.5
20260510013009 6 198 0.0 4.8 0.00 0.00 0.00 66 1008.3
20260510011509 7 236 0.0 4.8 0.00 0.00 0.00 67 1008.0
20260510010003 7 6 0.0 3.2 0.00 0.00 0.00 66 1007.7
20260510004502 7 11 0.0 6.4 0.00 0.00 0.00 65 1007.5
20260510003058 8 328 0.0 3.2 0.00 0.00 0.00 61 1007.1
20260510001556 8 23 1.6 9.7 0.00 0.00 0.00 60 1006.8
20260510000105 8 124 1.6 9.7 0.00 0.00 0.00 62 1006.4
20260509234559 9 354 0.0 9.7 0.00 0.00 0.00 63 1005.9
20260509233050 9 11 3.2 11.3 0.00 0.00 0.00 60 1005.6
20260509231548 11 331 0.0 9.7 0.00 0.00 0.00 57 1005.2
20260509230045 11 344 3.2 11.3 0.00 0.00 0.00 54 1004.9